Union Aéronautique de la Côte d'Azur

Union Aéronautique de la Côte d'Azur
UACA
Approuvé A.T.O. EASA – N°FR.ATO.0108

UNION des aéroclubs
Cannes “Ailes d’Azur”, Nice “Côte d’Azur”, Grasse “St Exupery”, ACCA “Francis Séverac”

Un cache-pitot se trouve à bord de chaque avion. Pensez à le mettre en place à la fin de chaque vol !

Avant de quitter l'avion, vérifiez que vous n'emportez pas la checklist

Un vol ne s'entreprend qu'avec un pare-brise parfaitement propre, il en va de votre sécurité, et de celle des autres

Après chaque vol, merci de mettre en place les pares-soleil!


Météo à Cannes:
METAR
LFMD 202200Z AUTO 01004KT 340V050 CAVOK 22/16 Q1018 =

TAF
LFMD 201400Z 2015/2115 17008KT 9999 FEW040 BECMG 2019/2021 VRB05KT CAVOK BECMG 2106/2108 10008KT =

SR / SS: 03:46 / 19:22 UTC (LFMD 2018-06-21)